Regional Weather Roundup
Issued by NWS

Home | Current Version | Previous Version | Text Only | Print | Product List | Glossary On
Versions: 1 2 3 4 5 6 7 8 9 10 11 12 13 14 15 16 17 18 19 20 21 22 23 24 25 26 27 28 29 30 31 32 33 34 35 36 37 38 39 40 41 42 43 44 45 46 47 48 49 50
000
ASUS42 KKEY 201911
RWRKEY

FLORIDA REGIONAL WEATHER ROUNDUP FOR THE FLORIDA KEYS
NATIONAL WEATHER SERVICE KEY WEST FLORIDA
300 PM EDT SUN AUG 20 2017

...SOUTH FLORIDA AND THE KEYS...

CITY           SKY/WX    TMP DP  RH WIND       PRES   REMARKS
FORT MYERS     MOSUNNY   90  76  63 SE10      30.00F HX 101
SW REGIONAL AP MOSUNNY   90  75  61 SE10      30.01F HX 100
NAPLES         PTSUNNY   91  76  61 SE8       30.00F HX 103
MIAMI          PTSUNNY   89  76  65 E10       30.02F HX 100
WEST KENDALL   PTSUNNY   90  76  63 E10       30.01F HX 101
HOMESTEAD      CLOUDY    88  81  79 E9        30.01F HX 105
MARATHON       SUNNY     89  80  74 SE8G16    29.99F HX 106
BOCA CHICA NAS CLOUDY    90  80  72 E14       29.98F HX 107
KEY WEST INTL  MOSUNNY   90  79  70 E12       29.98F HX 106

...INTERNATIONAL WEATHER...

CITY           SKY/WX    TMP DP  RH WIND       PRES   REMARKS
NASSAU BAHAMAS MOSUNNY   93  75  55 E10       30.02F HX 104
CANCUN MEXICO  PTSUNNY   90  75  62 NE10      29.93F HX 100
COZUMEL MEXICO PTSUNNY   88  77  70 E13       29.89F HX 100

ADJACENT COASTAL WATERS...

STATION/POSITION TIME  SKY/WX   TEMP    WIND        PRES    WAVE
                                AIR SEA DIR/SP/G            HT/PER
                 (UTC)          (F)     (DEG/KT/KT) (MB)    (FT/S)
PULASKI SHOAL LI 1900            86     120/ 15/ 17 1015.3F
SAND KEY         1850            86                 1015.8F
LONG KEY         NOT AVBL
MOLASSES REEF    1900            86 87  130/ 12/ 14 1016.3
FOWEY ROCKS      1900            86 87  100/ 11/ 12 1017.0F
Buoy 42097       1900               87                N/A     3/ 4

$$



USA.gov is the U.S. government's official web portal to all federal, state and local government web resources and services.